Language: 


Des rapports , des résumés tant et plus, au choix de chacun....


Données Historiques de Météogheer
Journalier Rapport pour Janvier 24, 2018 Unitée:  Métrique    Impériale   Les deux
Suivant Jour »
Journalier Hebdomadaire Mensuel Annuel Sur mesure
  Max: Min: Moyenne:
Température: 14.9 °C 0.0 °C 11.8 °C
Point de rosée: 13.0 °C 7.0 °C 11.1 °C
Humidité: 98% 0% 87%
Vent: 42.8km/h 0.0km/h 17.8km/h
Rafales: 52.6km/h - -
Vent- - SW
Pression: 1018.2 hPa 1007.0 hPa -
Pluie: 4.3 mm    
Historical Graphs
 
 
Données tabulaires pour Janvier 24, 2018
Heure Température Point de rosée Pression Vent Vent Rafales Humidité Pluie Taux (Horaire) Conditions
00:02 11.8 °C 12.0 °C 1016.8 hPa SSW 10.5 km/h 10.5 km/h 98% 0.5 mm
00:07 11.9 °C 12.0 °C 1016.8 hPa SSW 10.5 km/h 10.5 km/h 98% 1.0 mm
00:12 11.9 °C 12.0 °C 1016.8 hPa SSW 10.5 km/h 10.5 km/h 98% 1.0 mm
00:17 11.9 °C 12.0 °C 1016.8 hPa SSW 10.5 km/h 10.5 km/h 98% 1.0 mm
00:22 11.9 °C 12.0 °C 1016.8 hPa SW 13.7 km/h 13.7 km/h 98% 1.0 mm
00:27 11.9 °C 12.0 °C 1016.8 hPa SW 13.7 km/h 13.7 km/h 98% 1.0 mm
00:32 11.9 °C 12.0 °C 1016.8 hPa SW 13.7 km/h 13.7 km/h 98% 0.8 mm
00:43 11.9 °C 12.0 °C 1016.8 hPa SW 13.7 km/h 13.7 km/h 98% 0.8 mm
00:48 11.9 °C 12.0 °C 1016.8 hPa SW 13.7 km/h 13.7 km/h 98% 0.8 mm
00:53 12.0 °C 12.0 °C 1016.8 hPa SW 13.7 km/h 13.7 km/h 98% 0.3 mm
00:58 12.0 °C 12.0 °C 1016.8 hPa SW 13.7 km/h 13.7 km/h 98% 0.8 mm
01:03 12.0 °C 12.0 °C 1016.8 hPa SW 13.7 km/h 13.7 km/h 98% 0.8 mm
01:08 12.0 °C 12.0 °C 1016.8 hPa SW 13.7 km/h 13.7 km/h 98% 0.3 mm
01:13 12.0 °C 12.0 °C 1016.8 hPa SW 13.7 km/h 13.7 km/h 98% 0.3 mm
01:18 12.0 °C 12.0 °C 1016.8 hPa SW 13.7 km/h 13.7 km/h 98% 0.3 mm
01:23 12.0 °C 12.0 °C 1016.8 hPa SW 13.7 km/h 13.7 km/h 98% 0.3 mm
01:28 12.0 °C 12.0 °C 1016.8 hPa SW 13.7 km/h 13.7 km/h 98% 0.3 mm
01:33 12.0 °C 12.0 °C 1016.1 hPa SW 13.7 km/h 13.7 km/h 98% 0.3 mm
01:38 12.0 °C 12.0 °C 1016.1 hPa SW 13.7 km/h 13.7 km/h 98% 0.3 mm
01:48 12.0 °C 12.0 °C 1016.1 hPa SW 13.7 km/h 13.7 km/h 98% 0.3 mm
01:53 12.0 °C 12.0 °C 1016.1 hPa SW 13.7 km/h 13.7 km/h 98% 0.3 mm
01:58 12.1 °C 12.0 °C 1016.1 hPa SW 13.7 km/h 13.7 km/h 98% 0.0 mm
02:03 12.1 °C 12.0 °C 1016.8 hPa SW 13.7 km/h 13.7 km/h 98% 0.0 mm
02:08 12.1 °C 12.0 °C 1016.8 hPa SW 13.7 km/h 13.7 km/h 98% 0.0 mm
02:13 12.1 °C 12.0 °C 1016.8 hPa SW 13.7 km/h 13.7 km/h 98% 0.3 mm
02:18 12.0 °C 12.0 °C 1016.8 hPa SW 13.7 km/h 13.7 km/h 98% 0.3 mm
02:23 12.1 °C 12.0 °C 1016.8 hPa SW 13.7 km/h 13.7 km/h 98% 0.3 mm
02:28 12.0 °C 12.0 °C 1016.8 hPa SW 13.7 km/h 13.7 km/h 98% 0.3 mm
02:33 12.0 °C 12.0 °C 1018.2 hPa SW 13.7 km/h 13.7 km/h 98% 0.3 mm
02:38 12.0 °C 12.0 °C 1018.2 hPa SW 13.7 km/h 13.7 km/h 98% 0.3 mm
02:43 12.0 °C 12.0 °C 1018.2 hPa SW 13.7 km/h 13.7 km/h 98% 0.3 mm
02:53 12.0 °C 12.0 °C 1016.8 hPa SW 13.7 km/h 13.7 km/h 98% 0.3 mm
02:58 12.0 °C 12.0 °C 1016.8 hPa SW 13.7 km/h 13.7 km/h 98% 0.3 mm
03:03 12.0 °C 12.0 °C 1016.8 hPa SW 13.7 km/h 13.7 km/h 98% 0.3 mm
03:08 12.0 °C 12.0 °C 1016.8 hPa SW 13.7 km/h 13.7 km/h 98% 0.3 mm
03:13 12.0 °C 12.0 °C 1016.8 hPa SW 13.7 km/h 13.7 km/h 98% 0.0 mm
03:18 12.0 °C 12.0 °C 1016.8 hPa SW 13.7 km/h 13.7 km/h 98% 0.0 mm
03:23 12.0 °C 12.0 °C 1016.8 hPa SW 13.7 km/h 13.7 km/h 98% 0.0 mm
03:29 12.0 °C 12.0 °C 1016.1 hPa SW 13.7 km/h 13.7 km/h 98% 0.0 mm
03:34 12.0 °C 12.0 °C 1016.1 hPa SW 13.7 km/h 13.7 km/h 98% 0.0 mm
03:39 12.1 °C 12.0 °C 1016.1 hPa SW 13.7 km/h 13.7 km/h 98% 0.0 mm
03:44 12.0 °C 12.0 °C 1016.1 hPa SW 13.7 km/h 13.7 km/h 98% 0.0 mm
03:49 12.1 °C 12.0 °C 1016.1 hPa SW 13.7 km/h 13.7 km/h 98% 0.0 mm
03:59 12.1 °C 12.0 °C 1016.1 hPa SW 13.7 km/h 13.7 km/h 98% 0.0 mm
04:04 12.1 °C 12.0 °C 1016.1 hPa SW 13.7 km/h 13.7 km/h 98% 0.0 mm
04:09 12.1 °C 12.0 °C 1016.1 hPa SW 13.7 km/h 13.7 km/h 98% 0.0 mm
04:14 12.2 °C 12.0 °C 1015.1 hPa SW 13.7 km/h 13.7 km/h 98% 0.0 mm
04:19 12.2 °C 12.0 °C 1015.1 hPa SW 13.7 km/h 13.7 km/h 98% 0.0 mm
04:24 12.2 °C 12.0 °C 1015.1 hPa SW 13.7 km/h 13.7 km/h 98% 0.0 mm
04:27 12.2 °C 12.0 °C 1015.1 hPa SW 13.7 km/h 13.7 km/h 98% 0.0 mm
04:32 12.2 °C 12.0 °C 1015.1 hPa SSW 14.0 km/h 14.0 km/h 98% 0.0 mm
04:37 12.2 °C 12.0 °C 1015.1 hPa SSW 15.8 km/h 16.6 km/h 98% 0.0 mm
04:47 12.3 °C 13.0 °C 1015.1 hPa SSW 13.7 km/h 16.3 km/h 98% 0.0 mm
04:57 12.3 °C 13.0 °C 1015.1 hPa SW 14.8 km/h 16.9 km/h 98% 0.0 mm
05:02 12.4 °C 13.0 °C 1015.1 hPa SW 14.8 km/h 16.3 km/h 98% 0.0 mm
05:07 12.3 °C 13.0 °C 1015.1 hPa SW 9.0 km/h 17.2 km/h 98% 0.0 mm
05:12 12.3 °C 13.0 °C 1015.1 hPa South 13.0 km/h 21.6 km/h 98% 0.0 mm
05:17 12.4 °C 13.0 °C 1014.1 hPa SSW 15.8 km/h 21.6 km/h 98% 0.0 mm
05:22 12.4 °C 13.0 °C 1014.1 hPa SSW 11.6 km/h 17.7 km/h 98% 0.0 mm
05:27 12.4 °C 13.0 °C 1014.1 hPa South 15.8 km/h 19.8 km/h 98% 0.0 mm
05:32 12.4 °C 13.0 °C 1015.1 hPa SW 10.5 km/h 19.8 km/h 98% 0.0 mm
05:37 12.4 °C 13.0 °C 1015.1 hPa SSW 14.0 km/h 14.0 km/h 98% 0.0 mm
05:42 12.4 °C 13.0 °C 1015.1 hPa WSW 12.6 km/h 15.4 km/h 98% 0.0 mm
05:47 12.4 °C 13.0 °C 1015.1 hPa SW 11.9 km/h 20.6 km/h 98% 0.0 mm
05:52 12.5 °C 13.0 °C 1015.1 hPa South 20.6 km/h 20.6 km/h 98% 0.0 mm
05:57 12.4 °C 13.0 °C 1015.1 hPa SSW 14.0 km/h 20.6 km/h 98% 0.0 mm
06:13 12.4 °C 13.0 °C 1015.1 hPa SSW 9.0 km/h 15.4 km/h 98% 0.0 mm
06:18 12.4 °C 13.0 °C 1014.1 hPa SSW 15.8 km/h 15.8 km/h 98% 0.0 mm
06:23 12.4 °C 13.0 °C 1014.1 hPa SW 14.8 km/h 15.8 km/h 98% 0.0 mm
06:28 12.4 °C 13.0 °C 1014.1 hPa WSW 9.7 km/h 20.1 km/h 98% 0.0 mm
06:38 12.4 °C 13.0 °C 1014.1 hPa SSW 16.9 km/h 18.0 km/h 98% 0.0 mm
06:48 12.5 °C 13.0 °C 1014.1 hPa SW 10.5 km/h 22.7 km/h 98% 0.0 mm
06:53 12.5 °C 13.0 °C 1014.1 hPa SSW 9.0 km/h 22.7 km/h 98% 0.0 mm
06:58 12.5 °C 13.0 °C 1014.1 hPa SW 16.9 km/h 17.7 km/h 98% 0.0 mm
07:03 12.5 °C 13.0 °C 1014.1 hPa SSW 19.8 km/h 19.8 km/h 98% 0.0 mm
07:13 12.5 °C 13.0 °C 1014.1 hPa WSW 20.1 km/h 21.6 km/h 98% 0.0 mm
07:23 12.6 °C 13.0 °C 1014.1 hPa SSW 15.8 km/h 20.1 km/h 98% 0.0 mm
07:28 12.6 °C 13.0 °C 1014.1 hPa SSW 15.8 km/h 15.8 km/h 98% 0.0 mm
07:33 12.6 °C 13.0 °C 1015.1 hPa SSW 15.8 km/h 15.8 km/h 98% 0.0 mm
07:43 12.6 °C 13.0 °C 1015.1 hPa SSW 15.8 km/h 15.8 km/h 98% 0.0 mm
07:48 12.6 °C 13.0 °C 1014.1 hPa SSW 15.8 km/h 15.8 km/h 98% 0.0 mm
07:58 12.6 °C 13.0 °C 1014.1 hPa SSW 15.8 km/h 15.8 km/h 98% 0.0 mm
08:03 12.7 °C 13.0 °C 1014.1 hPa SSW 15.8 km/h 15.8 km/h 98% 0.0 mm
08:08 12.7 °C 13.0 °C 1014.1 hPa SSW 15.8 km/h 15.8 km/h 98% 0.0 mm
08:13 12.6 °C 13.0 °C 1014.1 hPa SSW 15.8 km/h 15.8 km/h 98% 0.0 mm
08:18 12.6 °C 13.0 °C 1014.1 hPa SSW 15.8 km/h 15.8 km/h 98% 0.0 mm
08:28 12.7 °C 13.0 °C 1013.1 hPa SSW 15.8 km/h 15.8 km/h 98% 0.0 mm
08:43 12.7 °C 13.0 °C 1013.1 hPa SSW 15.8 km/h 15.8 km/h 98% 0.0 mm
08:48 12.8 °C 13.0 °C 1013.1 hPa SSW 15.8 km/h 15.8 km/h 98% 0.0 mm
08:53 12.8 °C 13.0 °C 1013.1 hPa SSW 15.8 km/h 15.8 km/h 98% 0.0 mm
08:59 12.8 °C 13.0 °C 1013.1 hPa SSW 15.8 km/h 15.8 km/h 98% 0.0 mm
09:04 12.8 °C 13.0 °C 1013.1 hPa SSW 15.8 km/h 15.8 km/h 98% 0.0 mm
09:09 12.8 °C 13.0 °C 1013.1 hPa SSW 15.8 km/h 15.8 km/h 98% 0.0 mm
09:14 12.9 °C 13.0 °C 1013.1 hPa SSW 15.8 km/h 15.8 km/h 98% 0.0 mm
09:26 0.0 °C 13.0 °C 1013.1 hPa Calm     0% 0.0 mm
09:31 0.0 °C 13.0 °C 1013.1 hPa Calm     0% 0.0 mm
09:36 0.0 °C 13.0 °C 1013.1 hPa Calm     0% 0.0 mm
09:47 0.0 °C 13.0 °C 1013.1 hPa Calm     0% 0.0 mm
09:52 0.0 °C 13.0 °C 1013.1 hPa Calm     0% 0.0 mm
09:57 0.0 °C 13.0 °C 1013.1 hPa Calm     0% 0.0 mm
10:02 0.0 °C 13.0 °C 1013.1 hPa Calm     0% 0.0 mm
10:07 0.0 °C 13.0 °C 1013.1 hPa Calm     0% 0.0 mm
10:12 0.0 °C 13.0 °C 1013.1 hPa Calm     0% 0.0 mm
10:17 0.0 °C 13.0 °C 1013.1 hPa Calm     0% 0.0 mm
10:22 13.3 °C 13.0 °C 1013.1 hPa Calm     97% 0.0 mm
10:27 13.3 °C 13.0 °C 1013.1 hPa South 20.9 km/h 31.4 km/h 97% 0.0 mm
10:32 13.4 °C 13.0 °C 1012.1 hPa SSW 21.2 km/h 31.4 km/h 96% 0.0 mm
10:42 13.5 °C 13.0 °C 1012.1 hPa SSW 15.8 km/h 26.2 km/h 96% 0.0 mm
10:47 13.5 °C 13.0 °C 1013.1 hPa SSW 23.8 km/h 37.5 km/h 96% 0.0 mm
10:52 13.5 °C 13.0 °C 1013.1 hPa SW 10.5 km/h 37.5 km/h 96% 0.0 mm
10:57 13.5 °C 13.0 °C 1013.1 hPa SSW 19.1 km/h 28.0 km/h 96% 0.0 mm
11:02 13.8 °C 13.0 °C 1013.1 hPa WSW 22.4 km/h 34.3 km/h 94% 0.0 mm
11:07 13.8 °C 13.0 °C 1013.1 hPa South 17.7 km/h 34.3 km/h 94% 0.0 mm
11:12 14.2 °C 13.0 °C 1013.1 hPa SSW 20.6 km/h 32.0 km/h 92% 0.0 mm
11:17 14.2 °C 13.0 °C 1013.1 hPa SSW 17.7 km/h 32.3 km/h 92% 0.0 mm
11:22 14.6 °C 13.0 °C 1013.1 hPa SSW 23.8 km/h 32.3 km/h 91% 0.0 mm
11:27 14.7 °C 13.0 °C 1013.1 hPa SSW 17.7 km/h 39.3 km/h 90% 0.0 mm
11:32 14.5 °C 13.0 °C 1013.1 hPa SSW 24.8 km/h 39.3 km/h 89% 0.0 mm
11:37 14.5 °C 13.0 °C 1013.1 hPa South 21.2 km/h 38.1 km/h 88% 0.0 mm
11:42 14.7 °C 13.0 °C 1013.1 hPa South 21.2 km/h 38.1 km/h 88% 0.0 mm
11:47 14.7 °C 13.0 °C 1012.1 hPa SSW 38.9 km/h 38.9 km/h 87% 0.0 mm
11:52 14.6 °C 13.0 °C 1012.1 hPa South 32.0 km/h 41.7 km/h 87% 0.0 mm
11:57 14.5 °C 13.0 °C 1012.1 hPa SSW 24.8 km/h 41.7 km/h 88% 0.0 mm
12:02 14.5 °C 13.0 °C 1012.1 hPa SSW 26.2 km/h 41.4 km/h 89% 0.0 mm
12:07 14.5 °C 13.0 °C 1012.1 hPa SSW 16.3 km/h 41.4 km/h 90% 0.0 mm
12:12 14.6 °C 13.0 °C 1012.1 hPa SSW 18.0 km/h 36.7 km/h 90% 0.0 mm
12:17 14.7 °C 13.0 °C 1011.1 hPa SSW 31.7 km/h 43.1 km/h 89% 0.0 mm
12:22 14.6 °C 13.0 °C 1011.1 hPa WSW 37.0 km/h 43.1 km/h 89% 0.0 mm
12:27 14.7 °C 13.0 °C 1011.1 hPa SSW 22.7 km/h 37.0 km/h 89% 0.0 mm
12:32 14.8 °C 13.0 °C 1010.0 hPa SW 26.7 km/h 42.2 km/h 87% 0.0 mm
12:38 14.9 °C 13.0 °C 1010.0 hPa SSW 28.5 km/h 42.2 km/h 86% 0.0 mm
12:43 14.9 °C 13.0 °C 1010.0 hPa SSW 25.6 km/h 39.3 km/h 85% 0.0 mm
12:48 14.9 °C 13.0 °C 1011.1 hPa SSW 24.5 km/h 38.9 km/h 84% 0.0 mm
12:53 14.8 °C 12.0 °C 1011.1 hPa SW 39.6 km/h 39.6 km/h 84% 0.0 mm
12:58 14.8 °C 12.0 °C 1011.1 hPa SSW 28.5 km/h 40.4 km/h 83% 0.0 mm
13:03 14.8 °C 12.0 °C 1011.1 hPa SSW 20.1 km/h 40.4 km/h 83% 0.0 mm
13:08 14.8 °C 12.0 °C 1011.1 hPa SSW 27.7 km/h 40.4 km/h 83% 0.0 mm
13:13 14.8 °C 12.0 °C 1011.1 hPa South 35.6 km/h 40.4 km/h 83% 0.0 mm
13:18 14.6 °C 12.0 °C 1011.1 hPa South 33.1 km/h 39.3 km/h 82% 0.0 mm
13:23 14.5 °C 12.0 °C 1011.1 hPa SSW 31.4 km/h 43.9 km/h 81% 0.0 mm
13:28 14.4 °C 11.0 °C 1011.1 hPa WSW 23.8 km/h 47.5 km/h 81% 0.0 mm
13:33 14.5 °C 12.0 °C 1011.1 hPa SSW 37.8 km/h 47.5 km/h 81% 0.0 mm
13:38 14.5 °C 12.0 °C 1011.1 hPa SW 24.8 km/h 41.0 km/h 81% 0.0 mm
13:43 14.5 °C 12.0 °C 1011.1 hPa SSW 24.8 km/h 41.0 km/h 80% 0.0 mm
13:48 14.6 °C 11.0 °C 1010.0 hPa SSW 38.9 km/h 51.8 km/h 78% 0.0 mm
13:53 14.6 °C 11.0 °C 1010.0 hPa SW 38.1 km/h 51.8 km/h 79% 0.0 mm
13:58 14.5 °C 11.0 °C 1010.0 hPa SW 39.6 km/h 42.5 km/h 78% 0.0 mm
14:03 14.5 °C 11.0 °C 1010.0 hPa SSW 42.8 km/h 42.8 km/h 78% 0.0 mm
14:08 14.4 °C 11.0 °C 1010.0 hPa SSW 28.0 km/h 42.8 km/h 79% 0.0 mm
14:13 14.4 °C 11.0 °C 1010.0 hPa SW 28.0 km/h 42.8 km/h 78% 0.0 mm
14:18 14.4 °C 11.0 °C 1010.0 hPa SSW 27.4 km/h 39.3 km/h 78% 0.0 mm
14:23 14.3 °C 11.0 °C 1010.0 hPa SW 28.0 km/h 39.3 km/h 78% 0.0 mm
14:28 14.2 °C 11.0 °C 1010.0 hPa SSW 27.0 km/h 37.5 km/h 78% 0.0 mm
14:33 14.2 °C 11.0 °C 1010.0 hPa SW 38.5 km/h 38.5 km/h 77% 0.0 mm
14:43 14.1 °C 10.0 °C 1009.0 hPa SW 37.8 km/h 52.6 km/h 77% 0.0 mm
14:49 14.1 °C 10.0 °C 1009.0 hPa SSW 28.5 km/h 38.5 km/h 78% 0.0 mm
14:54 14.1 °C 10.0 °C 1009.0 hPa South 38.9 km/h 38.9 km/h 78% 0.0 mm
14:59 14.1 °C 10.0 °C 1009.0 hPa SW 28.8 km/h 38.9 km/h 78% 0.0 mm
15:04 14.2 °C 11.0 °C 1009.0 hPa SSW 22.7 km/h 38.9 km/h 77% 0.0 mm
15:09 14.2 °C 11.0 °C 1009.0 hPa SSW 26.2 km/h 28.8 km/h 77% 0.0 mm
15:19 14.1 °C 10.0 °C 1009.0 hPa SSW 24.5 km/h 30.2 km/h 76% 0.0 mm
15:24 14.1 °C 10.0 °C 1009.0 hPa SSW 20.9 km/h 30.2 km/h 76% 0.0 mm
15:34 14.0 °C 10.0 °C 1009.0 hPa SSW 20.6 km/h 37.0 km/h 75% 0.0 mm
15:39 14.0 °C 10.0 °C 1009.0 hPa SSW 28.8 km/h 37.0 km/h 75% 0.0 mm
15:49 14.0 °C 10.0 °C 1009.0 hPa SSW 24.5 km/h 32.0 km/h 75% 0.0 mm
15:54 14.0 °C 10.0 °C 1009.0 hPa SW 30.9 km/h 32.8 km/h 75% 0.0 mm
15:59 14.0 °C 10.0 °C 1009.0 hPa WSW 28.0 km/h 33.5 km/h 74% 0.0 mm
16:04 14.0 °C 10.0 °C 1009.0 hPa SW 23.3 km/h 36.0 km/h 74% 0.0 mm
16:09 14.0 °C 10.0 °C 1009.0 hPa SW 15.4 km/h 37.8 km/h 74% 0.0 mm
16:14 14.0 °C 9.0 °C 1008.0 hPa SSW 24.5 km/h 37.8 km/h 73% 0.0 mm
16:19 14.0 °C 10.0 °C 1008.0 hPa South 16.3 km/h 35.2 km/h 74% 0.0 mm
16:24 13.9 °C 9.0 °C 1008.0 hPa South 24.8 km/h 31.4 km/h 73% 0.0 mm
16:29 13.9 °C 9.0 °C 1008.0 hPa SW 27.4 km/h 36.4 km/h 73% 0.0 mm
16:39 13.8 °C 9.0 °C 1009.0 hPa SW 15.8 km/h 36.4 km/h 74% 0.0 mm
16:44 13.8 °C 9.0 °C 1009.0 hPa SSW 16.6 km/h 28.8 km/h 73% 0.0 mm
16:49 13.8 °C 9.0 °C 1009.0 hPa SW 19.8 km/h 28.8 km/h 74% 0.0 mm
16:54 13.7 °C 9.0 °C 1009.0 hPa SSW 28.5 km/h 28.5 km/h 74% 0.0 mm
16:59 13.7 °C 9.0 °C 1009.0 hPa SSW 19.8 km/h 28.5 km/h 74% 0.0 mm
17:14 13.5 °C 9.0 °C 1009.0 hPa SSW 18.0 km/h 24.5 km/h 74% 0.0 mm
17:20 13.5 °C 9.0 °C 1009.0 hPa SSW 17.2 km/h 27.4 km/h 74% 0.0 mm
17:25 13.4 °C 9.0 °C 1009.0 hPa SSW 24.8 km/h 32.3 km/h 75% 0.0 mm
17:30 13.4 °C 9.0 °C 1009.0 hPa SSW 19.8 km/h 32.3 km/h 75% 0.0 mm
17:35 13.3 °C 9.0 °C 1009.0 hPa SSW 15.8 km/h 27.7 km/h 75% 0.0 mm
17:45 13.1 °C 9.0 °C 1009.0 hPa SW 20.6 km/h 28.8 km/h 77% 0.0 mm
17:50 13.1 °C 9.0 °C 1009.0 hPa SSW 17.2 km/h 31.4 km/h 77% 0.0 mm
17:55 13.0 °C 9.0 °C 1009.0 hPa SSW 16.3 km/h 31.4 km/h 77% 0.0 mm
18:00 13.0 °C 9.0 °C 1008.0 hPa South 14.0 km/h 28.8 km/h 77% 0.0 mm
18:05 12.9 °C 9.0 °C 1008.0 hPa South 17.2 km/h 32.0 km/h 78% 0.0 mm
18:10 12.9 °C 9.0 °C 1008.0 hPa SSW 27.0 km/h 32.0 km/h 78% 0.0 mm
18:15 12.9 °C 9.0 °C 1008.0 hPa SSW 17.2 km/h 31.4 km/h 78% 0.0 mm
18:20 12.9 °C 9.0 °C 1008.0 hPa South 23.8 km/h 35.6 km/h 78% 0.0 mm
18:25 12.9 °C 9.0 °C 1008.0 hPa South 25.3 km/h 35.6 km/h 78% 0.0 mm
18:30 12.8 °C 9.0 °C 1008.0 hPa SW 23.0 km/h 36.7 km/h 78% 0.0 mm
18:40 12.8 °C 9.0 °C 1008.0 hPa SSW 28.8 km/h 36.4 km/h 78% 0.0 mm
18:45 12.8 °C 9.0 °C 1007.0 hPa South 20.6 km/h 36.4 km/h 78% 0.0 mm
18:50 12.8 °C 9.0 °C 1007.0 hPa SSW 28.0 km/h 28.8 km/h 78% 0.0 mm
18:55 12.8 °C 9.0 °C 1007.0 hPa SW 19.8 km/h 28.0 km/h 78% 0.0 mm
19:00 12.8 °C 9.0 °C 1008.0 hPa SW 25.6 km/h 28.5 km/h 78% 0.0 mm
19:05 12.8 °C 9.0 °C 1008.0 hPa SW 21.9 km/h 36.0 km/h 78% 0.0 mm
19:11 12.8 °C 9.0 °C 1008.0 hPa SW 16.9 km/h 36.0 km/h 78% 0.0 mm
19:21 12.8 °C 9.0 °C 1007.0 hPa SSW 20.9 km/h 35.6 km/h 78% 0.0 mm
19:30 12.8 °C 9.0 °C 1008.0 hPa SSE 29.1 km/h 30.2 km/h 78% 0.0 mm
19:36 12.7 °C 10.0 °C 1008.0 hPa SW 19.8 km/h 30.2 km/h 80% 0.0 mm
19:41 12.5 °C 10.0 °C 1008.0 hPa SSW 27.0 km/h 28.5 km/h 82% 0.0 mm
19:51 12.5 °C 10.0 °C 1008.0 hPa SSW 14.3 km/h 30.9 km/h 82% 0.0 mm
19:56 12.5 °C 10.0 °C 1008.0 hPa SSW 19.8 km/h 32.3 km/h 82% 0.0 mm
20:01 12.6 °C 10.0 °C 1007.0 hPa SSW 32.0 km/h 35.2 km/h 81% 0.0 mm
20:06 12.7 °C 10.0 °C 1007.0 hPa SSW 27.4 km/h 35.2 km/h 80% 0.0 mm
20:11 12.8 °C 10.0 °C 1007.0 hPa SSW 28.0 km/h 30.9 km/h 80% 0.0 mm
20:16 12.7 °C 10.0 °C 1008.0 hPa SW 27.0 km/h 36.4 km/h 81% 0.0 mm
20:21 12.6 °C 10.0 °C 1008.0 hPa SSW 20.6 km/h 36.4 km/h 81% 0.0 mm
20:26 12.6 °C 10.0 °C 1008.0 hPa SSW 27.7 km/h 31.4 km/h 81% 0.0 mm
20:31 12.5 °C 10.0 °C 1008.0 hPa WSW 28.0 km/h 30.9 km/h 83% 0.0 mm
20:36 11.1 °C 8.0 °C 1008.0 hPa WSW 13.0 km/h 28.5 km/h 81% 0.3 mm
20:41 10.1 °C 7.0 °C 1008.0 hPa West 5.0 km/h 28.5 km/h 83% 1.3 mm
20:46 9.6 °C 8.0 °C 1009.0 hPa WSW 7.9 km/h 13.0 km/h 85% 1.5 mm
20:51 9.3 °C 7.0 °C 1009.0 hPa WNW 11.9 km/h 11.9 km/h 86% 1.8 mm
21:01 8.9 °C 8.0 °C 1010.0 hPa WNW 10.1 km/h 14.0 km/h 91% 2.3 mm
21:06 8.7 °C 8.0 °C 1010.0 hPa WNW 14.0 km/h 14.0 km/h 92% 2.5 mm
21:11 8.6 °C 8.0 °C 1010.0 hPa WNW 3.5 km/h 14.0 km/h 92% 2.5 mm
21:16 8.5 °C 8.0 °C 1009.0 hPa NW 9.7 km/h 20.1 km/h 94% 2.5 mm
21:21 8.5 °C 8.0 °C 1009.0 hPa WSW 4.7 km/h 21.2 km/h 94% 2.8 mm
21:26 8.5 °C 8.0 °C 1009.0 hPa West 18.0 km/h 21.2 km/h 95% 2.8 mm
21:31 8.4 °C 8.0 °C 1010.0 hPa Calm   18.0 km/h 95% 2.8 mm
21:36 8.3 °C 8.0 °C 1010.0 hPa SSW 6.9 km/h 18.0 km/h 96% 2.5 mm
21:41 8.3 °C 8.0 °C 1010.0 hPa West 9.3 km/h 15.4 km/h 96% 1.8 mm
21:46 8.3 °C 8.0 °C 1010.0 hPa WSW 9.0 km/h 15.4 km/h 97% 1.5 mm
21:51 8.3 °C 8.0 °C 1010.0 hPa West 14.8 km/h 14.8 km/h 97% 1.3 mm
21:57 8.3 °C 9.0 °C 1010.0 hPa West 9.0 km/h 14.8 km/h 98% 0.8 mm
22:02 8.3 °C 9.0 °C 1011.1 hPa West 9.0 km/h 14.8 km/h 98% 0.8 mm
22:07 8.3 °C 9.0 °C 1011.1 hPa WSW 9.7 km/h 9.7 km/h 98% 0.5 mm
22:12 8.3 °C 9.0 °C 1011.1 hPa WSW 9.7 km/h 9.7 km/h 98% 0.5 mm
22:17 8.3 °C 9.0 °C 1011.1 hPa WSW 9.7 km/h 9.7 km/h 98% 0.5 mm
22:22 8.3 °C 9.0 °C 1011.1 hPa WSW 14.0 km/h 14.0 km/h 98% 0.3 mm
22:27 8.3 °C 9.0 °C 1011.1 hPa WSW 14.0 km/h 14.0 km/h 98% 0.5 mm
22:32 8.3 °C 9.0 °C 1010.0 hPa WSW 13.7 km/h 14.0 km/h 98% 0.5 mm
22:37 8.3 °C 9.0 °C 1010.0 hPa WSW 11.1 km/h 20.1 km/h 98% 0.5 mm
22:42 8.3 °C 9.0 °C 1010.0 hPa WSW 13.7 km/h 18.3 km/h 98% 0.3 mm
22:47 8.3 °C 9.0 °C 1011.1 hPa WSW 20.1 km/h 21.2 km/h 98% 0.3 mm
22:52 8.2 °C 8.0 °C 1011.1 hPa WSW 22.7 km/h 22.7 km/h 98% 0.3 mm
22:55 8.2 °C 8.0 °C 1011.1 hPa WSW 16.6 km/h 22.7 km/h 98% 0.3 mm
23:00 8.2 °C 8.0 °C 1011.1 hPa West 13.0 km/h 22.7 km/h 98% 0.3 mm
23:05 8.2 °C 8.0 °C 1011.1 hPa WSW 19.8 km/h 20.9 km/h 98% 0.3 mm
23:10 8.2 °C 8.0 °C 1011.1 hPa WSW 20.6 km/h 24.5 km/h 98% 0.3 mm
23:15 8.2 °C 8.0 °C 1011.1 hPa WSW 13.7 km/h 28.5 km/h 98% 0.3 mm
23:20 8.1 °C 8.0 °C 1011.1 hPa WSW 14.0 km/h 28.5 km/h 98% 0.3 mm
23:25 8.1 °C 8.0 °C 1011.1 hPa WSW 13.7 km/h 20.9 km/h 98% 0.0 mm
23:31 8.1 °C 8.0 °C 1011.1 hPa West 13.0 km/h 17.7 km/h 98% 0.0 mm
23:36 8.0 °C 8.0 °C 1011.1 hPa WSW 11.9 km/h 17.7 km/h 98% 0.0 mm
23:41 8.0 °C 8.0 °C 1011.1 hPa SSW 16.9 km/h 17.7 km/h 98% 0.0 mm
23:46 8.0 °C 8.0 °C 1011.1 hPa WSW 13.7 km/h 19.5 km/h 98% 0.0 mm
23:51 8.0 °C 8.0 °C 1011.1 hPa SW 13.7 km/h 19.5 km/h 98% 0.0 mm
23:56 7.9 °C 8.0 °C 1011.1 hPa WSW 12.2 km/h 16.9 km/h 98% 0.0 mm
Données Historique de Météo Turbie

Mise a jour : 24/05/2018 23:28:14
Généré par Cumulus 1.9.4 (1099)